sat.trackr.live / text

‹ back to catalog

STARLINK-36716

NORAD 67699 · 2026-025G

PAYLOAD ACTIVE UNKNOWN

§ Identity

Operator
Country
US
Launch date
2026-02-07
Launch site
AFWTR
Launch vehicle
Mass (kg)
RCS (m²)

Purposes: comms

External: N2YO · Heavens-Above · Gunter

§ Orbital elements

Epoch: 2026-09-19T12:41:16.297440Z

Period
93.90 min
Inclination
97.2851°
Eccentricity
0.0001762
Mean motion
15.33468033 rev/d
Perigee alt
464.3 km
Apogee alt
466.7 km
Semi-major
6,843.6 km
B*
-5.0623e-4
RAAN
12.3920°
Arg perigee
327.3946°
Mean anomaly
32.7187°
Rev number
3,572

§ Raw data

STARLINK-367161 67699U 26025G   26262.52866085 -.00016395  00000+0 -50623-3 0  99942 67699  97.2851  12.3920 0001762 327.3946  32.7187 15.33468033 35729

JSON: /api/v1/satellites/67699 · /tle

For live sub-satellite position, see the globe view (requires WebGL).

§ Visibility from observer

Set your observer location to see the next 7 days of passes ≥ 10°. The values pass through the URL so the page stays shareable.

No JS? Fill the form by hand. The geolocation button needs JavaScript.